Flag for Germany Weather past 2 weeks in Gütersloh, North Rhine-Westphalia, Germany

Now
44 °F

Low clouds.


Feels Like: 41 °F
Forecast: 42 / 55 °F
Wind: 6 mph from West

Location: Bad Lippspringe

Current Time: Oct 22, 2014 at 6:13:32 AM

Latest Report: Oct 22, 2014 at 5:00 AM


Visibility: 9 mi

Pressure: 29.78 "Hg

Humidity: 96%

Dew point: 43 °F

Location of GüterslohLocation

Historic Weather in Gütersloh — Graph

°F

Gütersloh temperature yesterday

Maximum temperature yesterday: 55 °F (at 12:00 PM)
Minimum temperature yesterday: 47 °F (at 11:00 PM)
Average temperature yesterday: 53 °F

Past Weeks' High & Low Weather Summary

 TemperatureHumidityPressure
High74 °F (Oct 19, 3:00 PM)99% (Oct 11, 8:00 AM)30.16 "Hg (Oct 11, 8:00 AM)
Low43 °F (Oct 22, 4:00 AM)54% (Oct 14, 3:00 PM)29.44 "Hg (Oct 21, 6:00 PM)
Average57 °F83%29.84 "Hg
* Reported Oct 7 5:00 AM — Oct 22 5:00 AM, Gütersloh, Weather by CustomWeather, © 2014

Note: Actual official high and low records may vary slightly from our data, if they occured in-between our weather recording intervals... More about our weather records

Advertising

Gütersloh weather history for previous 24 hours

 ConditionsComfort  
Time TempWeatherWind HumidityBarometerVisibility
5:00 AM
Oct 22
44 °FLow clouds.6 mph96%29.78 "Hg9 mi
4:00 AM43 °FRain. Low clouds.7 mph97%29.77 "Hg1 mi
3:00 AM44 °FRain. Overcast.6 mph94%29.76 "Hg2 mi
2:00 AM45 °FOvercast.7 mph86%29.74 "Hg17 mi
1:00 AM45 °FOvercast.7 mph87%29.72 "Hg22 mi
12:00 AM46 °FRain. Overcast.8 mph88%29.68 "Hg2 mi
11:00 PM
Oct 21
47 °FDrizzle. Overcast.7 mph88%29.65 "Hg11 mi
10:00 PM48 °FDrizzle. Overcast.7 mph90%29.60 "Hg7 mi
9:00 PM49 °FOvercast.8 mph89%29.57 "Hg14 mi
8:00 PM50 °FOvercast.7 mph91%29.53 "Hg16 mi
7:00 PM51 °FDrizzle. Overcast.7 mph94%29.50 "Hg19 mi
6:00 PM53 °FLight rain. Overcast.6 mph88%29.44 "Hg18 mi
5:00 PM54 °FLight rain. Overcast.8 mph81%29.47 "Hg9 mi
4:00 PM54 °FOvercast.8 mph80%29.53 "Hg25 mi
3:00 PM54 °FOvercast.7 mph77%29.57 "Hg22 mi
2:00 PM55 °FOvercast.7 mph74%29.62 "Hg22 mi
1:00 PM55 °FOvercast.6 mph75%29.67 "Hg22 mi
12:00 PM55 °FOvercast.6 mph73%29.70 "Hg25 mi
11:00 AM54 °FOvercast.6 mph80%29.75 "Hg22 mi
10:00 AM54 °FDrizzle. Overcast.5 mph82%29.78 "Hg5 mi
9:00 AM53 °FDrizzle. Overcast.3 mph84%29.78 "Hg7 mi
8:00 AM53 °FOvercast.3 mph81%29.80 "Hg12 mi
7:00 AM53 °FOvercast.3 mph82%29.82 "Hg12 mi
6:00 AM54 °FOvercast.3 mph83%29.84 "Hg11 mi
Weather by CustomWeather, © 2014

See weather overviewHow to use our weather pages